QPF
0.04 0.05 0.04 0.05 0.05 0.03 0.03 0.02 0.01 0.01 0.01 0.01 0.01 0.01 0.02 0.02 0.02 0.02 0.02 0.03 0.03 0.02 0.02 0.03 0.03 0.03 0.02 0.02 0.03 0.02 0.02 0.02 0.03 0.03 0.04 0.04 0.04 0.04
0.04 0.04 0.04 0.03 0.04 0.04 0.04 0.02 0.02 0.01 0.01 0.00 0.01 0.02 0.03 0.02 0.03 0.02 0.03 0.06 0.05 0.04 0.04 0.05 0.05 0.04 0.03 0.03 0.03 0.03 0.03 0.02 0.02 0.02 0.03 0.04 0.05 0.05
0.03 0.03 0.03 0.04 0.02 0.04 0.04 0.03 0.03 0.02 0.01 0.01 0.01 0.01 0.01 0.01 0.01 0.02 0.04 0.05 0.06 0.07 0.07 0.07 0.08 0.06 0.04 0.03 0.02 0.02 0.02 0.02 0.01 0.01 0.02 0.02 0.04 0.06
0.02 0.03 0.03 0.03 0.02 0.02 0.02 0.03 0.03 0.03 0.02 0.01 0.01 0.02 0.02 0.03 0.02 0.02 0.02 0.03 0.04 0.04 0.04 0.06 0.06 0.06 0.05 0.03 0.02 0.02 0.02 0.01 0.01 0.01 0.01 0.02 0.03 0.04
0.03 0.03 0.03 0.02 0.01 0.02 0.02 0.02 0.02 0.03 0.03 0.02 0.01 0.01 0.02 0.03 0.03 0.02 0.01 0.02 0.02 0.03 0.03 0.04 0.04 0.03 0.03 0.02 0.02 0.02 0.02 0.01 0.01 0.01 0.01 0.01 0.01 0.02
0.04 0.03 0.03 0.03 0.02 0.02 0.03 0.02 0.02 0.02 0.03 0.02 0.01 0.01 0.01 0.01 0.02 0.02 0.02 0.02 0.02 0.03 0.03 0.04 0.03 0.02 0.02 0.01 0.01 0.01 0.01 0.01 0.01 0.01 0.01 0.01 0.01 0.01
0.05 0.03 0.03 0.03 0.04 0.06 0.04 0.03 0.03 0.02 0.03 0.04 0.04 0.03 0.02 0.03 0.02 0.02 0.02 0.02 0.02 0.03 0.03 0.04 0.03 0.02 0.02 0.02 0.01 0.01 0.01 0.01 0.01 0.01 0.01 0.01 0.01 0.01
0.03 0.03 0.03 0.03 0.05 0.06 0.05 0.04 0.03 0.03 0.04 0.04 0.03 0.03 0.03 0.03 0.02 0.03 0.03 0.02 0.03 0.03 0.04 0.04 0.03 0.02 0.02 0.01 0.02 0.01 0.01 0.01 0.01 0.01 0.01 0.01 0.01 0.01
0.03 0.03 0.04 0.03 0.04 0.03 0.03 0.05 0.05 0.05 0.04 0.03 0.03 0.02 0.03 0.03 0.03 0.03 0.03 0.03 0.02 0.02 0.02 0.02 0.02 0.01 0.01 0.01 0.02 0.02 0.02 0.02 0.02 0.02 0.01 0.01 0.01 0.01
0.04 0.04 0.03 0.03 0.03 0.03 0.03 0.03 0.03 0.04 0.05 0.04 0.02 0.02 0.02 0.03 0.03 0.02 0.02 0.02 0.02 0.02 0.02 0.02 0.02 0.01 0.02 0.02 0.02 0.02 0.02 0.02 0.01 0.01 0.01 0.01 0.01 0.02
0.05 0.05 0.04 0.04 0.04 0.05 0.04 0.03 0.03 0.03 0.05 0.04 0.04 0.03 0.02 0.02 0.02 0.02 0.02 0.01 0.01 0.01 0.01 0.02 0.01 0.01 0.01 0.01 0.02 0.02 0.02 0.02 0.02 0.01 0.01 0.01 0.01 0.01
0.08 0.06 0.05 0.04 0.04 0.06 0.06 0.05 0.04 0.03 0.04 0.04 0.04 0.03 0.02 0.02 0.02 0.01 0.01 0.01 0.01 0.01 0.01 0.02 0.01 0.01 0.01 0.01 0.01 0.01 0.02 0.02 0.03 0.02 0.02 0.02 0.02 0.02
0.07 0.07 0.06 0.06 0.05 0.05 0.05 0.05 0.06 0.07 0.08 0.07 0.07 0.07 0.06 0.04 0.03 0.01 0.01 0.01 0.01 0.01 0.01 0.02 0.02 0.01 0.01 0.01 0.00 0.01 0.01 0.02 0.03 0.03 0.02 0.03 0.03 0.03
0.07 0.07 0.08 0.09 0.08 0.08 0.08 0.08 0.09 0.10 0.11 0.11 0.12 0.12 0.09 0.06 0.04 0.03 0.03 0.02 0.01 0.01 0.02 0.02 0.02 0.02 0.02 0.01 0.01 0.01 0.01 0.01 0.02 0.03 0.03 0.03 0.03 0.04
0.05 0.05 0.05 0.05 0.05 0.06 0.09 0.11 0.12 0.11 0.11 0.12 0.12 0.10 0.08 0.07 0.06 0.06 0.06 0.05 0.04 0.03 0.02 0.02 0.02 0.02 0.02 0.02 0.02 0.02 0.02 0.02 0.02 0.03 0.03 0.04 0.03 0.03
0.03 0.04 0.04 0.04 0.04 0.05 0.06 0.07 0.07 0.07 0.07 0.07 0.06 0.05 0.04 0.05 0.06 0.07 0.07 0.07 0.07 0.06 0.05 0.03 0.02 0.02 0.02 0.02 0.01 0.02 0.02 0.02 0.02 0.02 0.04 0.04 0.04 0.04
0.04 0.04 0.04 0.06 0.06 0.06 0.06 0.06 0.05 0.04 0.03 0.03 0.02 0.02 0.02 0.03 0.03 0.04 0.05 0.07 0.07 0.07 0.07 0.06 0.05 0.03 0.02 0.03 0.03 0.03 0.03 0.03 0.03 0.03 0.03 0.04 0.04 0.04
0.09 0.07 0.06 0.06 0.05 0.04 0.05 0.05 0.04 0.04 0.03 0.03 0.03 0.02 0.02 0.03 0.02 0.02 0.02 0.03 0.05 0.06 0.07 0.07 0.08 0.07 0.05 0.05 0.05 0.04 0.04 0.04 0.04 0.04 0.03 0.04 0.04 0.05
0.08 0.07 0.05 0.04 0.04 0.04 0.04 0.03 0.03 0.03 0.03 0.02 0.01 0.01 0.01 0.01 0.01 0.01 0.01 0.01 0.02 0.03 0.04 0.04 0.06 0.07 0.07 0.06 0.05 0.04 0.04 0.04 0.05 0.04 0.04 0.04 0.06 0.07
0.04 0.04 0.04 0.03 0.03 0.03 0.03 0.03 0.02 0.01 0.00 0.00 0.00 0.00 0.00 0.00 0.00 0.00 0.00 0.00 0.01 0.01 0.02 0.03 0.03 0.04 0.05 0.04 0.04 0.04 0.04 0.05 0.05 0.04 0.03 0.03 0.04 0.07
0.02 0.02 0.02 0.02 0.01 0.02 0.02 0.01 0.01 0.01 0.00 0.00 0.00 0.00 0.00 0.00 0.00 0.00 0.00 0.00 0.00 0.00 0.01 0.01 0.01 0.02 0.02 0.02 0.02 0.02 0.04 0.06 0.05 0.04 0.03 0.02 0.03 0.04
0.02 0.01 0.01 0.01 0.01 0.01 0.01 0.01 0.01 0.01 0.01 0.00 0.00 0.00 0.00 0.00 0.00 0.00 0.00 0.01 0.01 0.00 0.00 0.00 0.01 0.01 0.02 0.01 0.01 0.01 0.02 0.03 0.04 0.04 0.03 0.03 0.03 0.03
0.03 0.02 0.02 0.02 0.02 0.02 0.01 0.01 0.01 0.01 0.01 0.01 0.01 0.01 0.01 0.00 0.00 0.00 0.01 0.01 0.01 0.01 0.01 0.01 0.01 0.01 0.02 0.01 0.01 0.01 0.01 0.02 0.02 0.02 0.02 0.02 0.01 0.02
MSLP
1016.42 1016.83 1017.25 1017.65 1018.02 1018.31 1018.52 1018.63 1018.64 1018.56 1018.39 1018.16 1017.87 1017.55 1017.22 1016.90 1016.61 1016.37 1016.18 1016.07 1016.03 1016.06 1016.16 1016.31 1016.50 1016.71 1016.92 1017.12 1017.30 1017.47 1017.62 1017.77 1017.93 1018.09 1018.28 1018.49 1018.73 1018.98
1015.63 1016.04 1016.45 1016.85 1017.22 1017.54 1017.79 1017.96 1018.05 1018.05 1017.96 1017.80 1017.58 1017.32 1017.03 1016.72 1016.42 1016.15 1015.91 1015.74 1015.63 1015.60 1015.64 1015.75 1015.91 1016.10 1016.31 1016.53 1016.75 1016.96 1017.16 1017.35 1017.54 1017.73 1017.93 1018.15 1018.38 1018.62
1014.78 1015.17 1015.57 1015.96 1016.34 1016.68 1016.97 1017.20 1017.36 1017.44 1017.45 1017.39 1017.25 1017.06 1016.81 1016.54 1016.25 1015.96 1015.69 1015.46 1015.30 1015.20 1015.17 1015.21 1015.32 1015.48 1015.68 1015.90 1016.13 1016.37 1016.60 1016.82 1017.04 1017.26 1017.48 1017.71 1017.94 1018.18
1013.86 1014.24 1014.62 1015.01 1015.39 1015.75 1016.08 1016.36 1016.59 1016.76 1016.86 1016.89 1016.84 1016.72 1016.54 1016.31 1016.04 1015.75 1015.47 1015.20 1014.98 1014.82 1014.73 1014.70 1014.75 1014.86 1015.02 1015.23 1015.46 1015.70 1015.95 1016.20 1016.45 1016.69 1016.93 1017.17 1017.42 1017.67
1012.86 1013.23 1013.60 1013.99 1014.37 1014.75 1015.11 1015.45 1015.74 1015.98 1016.16 1016.27 1016.31 1016.27 1016.16 1015.98 1015.75 1015.48 1015.20 1014.92 1014.66 1014.45 1014.30 1014.22 1014.20 1014.25 1014.36 1014.53 1014.73 1014.97 1015.22 1015.49 1015.76 1016.02 1016.29 1016.56 1016.83 1017.12
1011.79 1012.14 1012.51 1012.90 1013.30 1013.70 1014.09 1014.46 1014.80 1015.10 1015.34 1015.51 1015.62 1015.65 1015.60 1015.48 1015.30 1015.08 1014.82 1014.56 1014.30 1014.07 1013.88 1013.74 1013.67 1013.66 1013.71 1013.82 1013.99 1014.20 1014.44 1014.71 1015.00 1015.29 1015.60 1015.91 1016.22 1016.55
1010.67 1011.01 1011.38 1011.77 1012.18 1012.60 1013.01 1013.41 1013.78 1014.10 1014.38 1014.60 1014.75 1014.83 1014.84 1014.79 1014.67 1014.51 1014.31 1014.09 1013.85 1013.63 1013.43 1013.27 1013.15 1013.09 1013.09 1013.14 1013.26 1013.44 1013.66 1013.93 1014.22 1014.55 1014.89 1015.25 1015.62 1016.00
1009.55 1009.88 1010.25 1010.65 1011.07 1011.50 1011.92 1012.32 1012.69 1013.02 1013.30 1013.53 1013.71 1013.82 1013.88 1013.89 1013.85 1013.76 1013.64 1013.49 1013.32 1013.14 1012.96 1012.80 1012.67 1012.57 1012.52 1012.53 1012.60 1012.73 1012.93 1013.19 1013.50 1013.86 1014.24 1014.65 1015.08 1015.52
1008.50 1008.82 1009.19 1009.59 1010.00 1010.43 1010.84 1011.23 1011.58 1011.89 1012.15 1012.37 1012.55 1012.68 1012.77 1012.83 1012.86 1012.86 1012.84 1012.78 1012.70 1012.60 1012.48 1012.35 1012.23 1012.12 1012.04 1012.01 1012.04 1012.15 1012.32 1012.57 1012.89 1013.27 1013.69 1014.15 1014.63 1015.11
1007.57 1007.88 1008.23 1008.62 1009.03 1009.44 1009.83 1010.18 1010.50 1010.77 1011.00 1011.19 1011.34 1011.47 1011.58 1011.69 1011.78 1011.87 1011.95 1012.01 1012.04 1012.04 1012.00 1011.93 1011.84 1011.75 1011.67 1011.63 1011.64 1011.72 1011.88 1012.12 1012.44 1012.84 1013.29 1013.78 1014.29 1014.80
1006.81 1007.08 1007.41 1007.78 1008.17 1008.56 1008.92 1009.24 1009.52 1009.74 1009.92 1010.06 1010.18 1010.30 1010.42 1010.56 1010.71 1010.89 1011.06 1011.23 1011.37 1011.48 1011.54 1011.56 1011.53 1011.48 1011.42 1011.38 1011.38 1011.45 1011.61 1011.84 1012.17 1012.57 1013.04 1013.54 1014.06 1014.57
1006.18 1006.42 1006.72 1007.07 1007.43 1007.80 1008.13 1008.42 1008.66 1008.84 1008.97 1009.08 1009.17 1009.26 1009.39 1009.55 1009.75 1009.99 1010.25 1010.51 1010.76 1010.97 1011.13 1011.23 1011.28 1011.28 1011.26 1011.25 1011.26 1011.34 1011.49 1011.72 1012.04 1012.44 1012.90 1013.39 1013.89 1014.38
1005.66 1005.86 1006.13 1006.45 1006.79 1007.14 1007.46 1007.73 1007.95 1008.10 1008.21 1008.29 1008.36 1008.44 1008.56 1008.73 1008.96 1009.24 1009.56 1009.90 1010.23 1010.52 1010.77 1010.95 1011.07 1011.13 1011.16 1011.18 1011.22 1011.31 1011.46 1011.69 1012.00 1012.38 1012.81 1013.27 1013.73 1014.17
1005.18 1005.33 1005.57 1005.87 1006.21 1006.56 1006.88 1007.16 1007.38 1007.54 1007.65 1007.72 1007.79 1007.87 1007.99 1008.16 1008.40 1008.70 1009.05 1009.43 1009.80 1010.15 1010.46 1010.70 1010.87 1010.99 1011.06 1011.12 1011.19 1011.29 1011.45 1011.67 1011.96 1012.31 1012.71 1013.11 1013.52 1013.89
1004.69 1004.81 1005.03 1005.32 1005.66 1006.02 1006.37 1006.68 1006.93 1007.13 1007.27 1007.37 1007.46 1007.55 1007.67 1007.85 1008.09 1008.38 1008.73 1009.11 1009.50 1009.86 1010.19 1010.46 1010.67 1010.82 1010.93 1011.02 1011.11 1011.22 1011.38 1011.59 1011.86 1012.17 1012.51 1012.86 1013.19 1013.49
1004.20 1004.30 1004.50 1004.80 1005.16 1005.54 1005.93 1006.30 1006.61 1006.87 1007.07 1007.22 1007.34 1007.46 1007.60 1007.77 1008.00 1008.27 1008.59 1008.95 1009.31 1009.66 1009.97 1010.24 1010.46 1010.62 1010.75 1010.85 1010.95 1011.07 1011.22 1011.41 1011.64 1011.91 1012.19 1012.47 1012.73 1012.96
1003.76 1003.85 1004.05 1004.35 1004.73 1005.16 1005.61 1006.03 1006.42 1006.75 1007.02 1007.25 1007.42 1007.58 1007.74 1007.91 1008.12 1008.36 1008.63 1008.93 1009.24 1009.55 1009.82 1010.06 1010.26 1010.41 1010.53 1010.63 1010.73 1010.84 1010.97 1011.13 1011.32 1011.53 1011.75 1011.97 1012.16 1012.32
1003.49 1003.57 1003.78 1004.10 1004.50 1004.96 1005.45 1005.94 1006.40 1006.80 1007.15 1007.44 1007.68 1007.88 1008.05 1008.23 1008.42 1008.62 1008.84 1009.08 1009.32 1009.56 1009.78 1009.97 1010.12 1010.25 1010.34 1010.42 1010.50 1010.58 1010.68 1010.80 1010.93 1011.09 1011.25 1011.40 1011.53 1011.63
1003.53 1003.62 1003.83 1004.15 1004.56 1005.04 1005.56 1006.08 1006.59 1007.05 1007.46 1007.80 1008.09 1008.33 1008.53 1008.71 1008.87 1009.04 1009.21 1009.39 1009.57 1009.73 1009.89 1010.02 1010.12 1010.20 1010.25 1010.30 1010.33 1010.38 1010.43 1010.50 1010.58 1010.67 1010.77 1010.85 1010.92 1010.96
1004.01 1004.10 1004.31 1004.62 1005.02 1005.49 1006.00 1006.53 1007.05 1007.53 1007.97 1008.35 1008.67 1008.93 1009.15 1009.33 1009.48 1009.62 1009.75 1009.88 1009.99 1010.10 1010.19 1010.26 1010.31 1010.33 1010.34 1010.34 1010.33 1010.32 1010.32 1010.33 1010.35 1010.38 1010.40 1010.42 1010.43 1010.42
1005.00 1005.09 1005.28 1005.56 1005.92 1006.35 1006.82 1007.31 1007.81 1008.28 1008.71 1009.09 1009.42 1009.69 1009.91 1010.09 1010.23 1010.35 1010.45 1010.54 1010.61 1010.67 1010.70 1010.72 1010.72 1010.70 1010.66 1010.61 1010.55 1010.48 1010.43 1010.37 1010.32 1010.28 1010.24 1010.19 1010.14 1010.07
1006.49 1006.57 1006.74 1006.97 1007.27 1007.62 1008.02 1008.44 1008.86 1009.28 1009.67 1010.02 1010.33 1010.60 1010.81 1010.99 1011.12 1011.23 1011.31 1011.37 1011.42 1011.44 1011.44 1011.41 1011.37 1011.30 1011.22 1011.12 1011.00 1010.89 1010.77 1010.65 1010.54 1010.43 1010.32 1010.21 1010.09 1009.97
1008.37 1008.45 1008.57 1008.74 1008.96 1009.22 1009.51 1009.84 1010.17 1010.51 1010.83 1011.13 1011.40 1011.64 1011.84 1012.00 1012.13 1012.23 1012.30 1012.34 1012.37 1012.37 1012.34 1012.29 1012.21 1012.11 1011.98 1011.84 1011.68 1011.51 1011.34 1011.16 1010.99 1010.83 1010.66 1010.49 1010.32 1010.14
Thickness
5739 5737 5735 5734 5733 5731 5729 5726 5721 5716 5717 5721 5722 5723 5722 5721 5721 5720 5720 5720 5718 5717 5716 5715 5713 5712 5711 5709 5708 5706 5705 5703 5702 5700 5698 5697 5696 5695
5737 5735 5734 5733 5731 5730 5727 5725 5722 5719 5715 5717 5717 5718 5717 5717 5717 5716 5716 5715 5714 5713 5712 5710 5708 5708 5706 5705 5703 5701 5700 5698 5696 5695 5693 5692 5691 5690
5735 5734 5732 5731 5729 5727 5725 5723 5720 5717 5713 5714 5714 5714 5712 5712 5712 5711 5711 5710 5709 5709 5707 5706 5704 5702 5701 5700 5698 5695 5694 5692 5691 5689 5687 5687 5686 5686
5733 5731 5730 5728 5726 5724 5722 5720 5718 5716 5712 5709 5709 5708 5707 5706 5706 5705 5705 5705 5704 5703 5702 5701 5699 5697 5696 5694 5692 5690 5689 5687 5685 5683 5681 5681 5681 5680
5731 5729 5727 5725 5722 5720 5718 5716 5714 5713 5709 5706 5704 5702 5701 5701 5699 5699 5699 5698 5698 5697 5696 5695 5693 5692 5690 5689 5687 5685 5684 5682 5680 5678 5676 5675 5675 5674
5728 5726 5724 5722 5720 5717 5715 5712 5710 5707 5704 5700 5698 5696 5695 5693 5692 5692 5691 5691 5690 5690 5689 5688 5687 5685 5684 5683 5682 5680 5678 5676 5674 5673 5672 5670 5670 5669
5723 5721 5720 5719 5717 5714 5712 5708 5705 5701 5698 5694 5691 5690 5688 5686 5685 5684 5684 5683 5682 5682 5681 5680 5679 5678 5677 5676 5675 5674 5672 5670 5669 5667 5666 5665 5665 5664
5718 5716 5715 5714 5712 5710 5707 5705 5701 5697 5693 5689 5687 5684 5683 5682 5680 5678 5677 5675 5674 5675 5674 5673 5672 5671 5670 5669 5668 5667 5666 5664 5663 5661 5659 5659 5658 5658
5713 5711 5710 5709 5706 5703 5701 5698 5695 5693 5691 5687 5683 5681 5679 5678 5675 5672 5670 5669 5668 5668 5666 5666 5665 5664 5663 5662 5661 5660 5659 5658 5656 5655 5653 5652 5652 5652
5707 5705 5703 5701 5699 5696 5693 5690 5687 5685 5684 5682 5680 5678 5676 5673 5670 5668 5665 5663 5661 5660 5660 5658 5658 5656 5656 5655 5654 5653 5652 5651 5649 5648 5647 5646 5646 5646
5701 5699 5696 5693 5692 5689 5686 5682 5679 5677 5676 5675 5673 5671 5669 5666 5663 5660 5656 5654 5653 5653 5652 5651 5650 5649 5648 5648 5647 5645 5644 5643 5642 5641 5640 5639 5639 5638
5692 5690 5688 5686 5684 5681 5678 5674 5671 5669 5667 5666 5664 5662 5659 5657 5654 5652 5650 5648 5646 5645 5645 5642 5641 5640 5640 5640 5638 5637 5636 5635 5634 5633 5632 5632 5631 5631
5684 5682 5680 5677 5675 5672 5669 5666 5664 5660 5658 5656 5654 5652 5650 5647 5645 5643 5642 5641 5640 5639 5638 5634 5633 5631 5630 5630 5629 5628 5627 5627 5627 5626 5625 5624 5624 5623
5677 5674 5671 5668 5665 5663 5660 5657 5654 5651 5648 5646 5644 5642 5640 5638 5636 5635 5634 5633 5632 5631 5629 5627 5625 5623 5621 5621 5621 5621 5619 5618 5618 5618 5617 5617 5616 5616
5668 5665 5662 5659 5656 5653 5650 5647 5644 5642 5639 5636 5634 5632 5631 5630 5629 5627 5626 5625 5624 5623 5621 5619 5618 5616 5614 5613 5612 5612 5611 5610 5609 5609 5609 5608 5609 5609
5658 5654 5651 5649 5646 5643 5641 5638 5634 5632 5630 5628 5626 5624 5623 5622 5620 5619 5618 5617 5616 5615 5613 5611 5610 5608 5607 5605 5604 5603 5603 5601 5601 5600 5600 5600 5600 5600
5648 5644 5641 5638 5636 5633 5631 5628 5625 5623 5621 5619 5617 5617 5615 5614 5612 5610 5608 5607 5606 5606 5605 5603 5601 5599 5598 5597 5596 5595 5594 5593 5592 5591 5591 5593 5593 5593
5638 5635 5632 5629 5627 5625 5623 5621 5618 5616 5614 5612 5610 5608 5607 5605 5603 5601 5599 5598 5597 5597 5596 5594 5592 5591 5589 5588 5587 5586 5585 5585 5584 5583 5583 5584 5586 5586
5630 5627 5624 5622 5620 5618 5616 5614 5612 5609 5607 5605 5603 5601 5599 5597 5595 5593 5591 5590 5589 5588 5586 5584 5583 5583 5582 5582 5581 5577 5577 5577 5576 5576 5576 5576 5578 5579
5622 5620 5617 5615 5613 5611 5609 5607 5605 5603 5600 5598 5596 5594 5591 5589 5587 5585 5583 5582 5581 5579 5578 5577 5575 5574 5573 5573 5572 5570 5569 5569 5569 5569 5569 5568 5569 5569
5615 5613 5611 5609 5607 5605 5602 5600 5598 5596 5594 5591 5589 5586 5584 5582 5580 5578 5576 5573 5572 5572 5571 5570 5568 5565 5564 5562 5562 5563 5562 5560 5560 5560 5560 5561 5562 5563
5608 5606 5604 5603 5600 5598 5595 5593 5591 5589 5587 5584 5582 5580 5578 5575 5574 5571 5569 5567 5566 5565 5563 5562 5559 5557 5556 5556 5556 5556 5555 5554 5553 5552 5552 5552 5553 5555
5601 5599 5597 5595 5593 5591 5589 5587 5585 5583 5580 5578 5576 5574 5571 5569 5567 5565 5563 5561 5559 5557 5555 5553 5552 5550 5550 5548 5548 5547 5547 5547 5547 5546 5546 5545 5545 5545